sat.trackr.live / text

‹ back to catalog

2024-016A

NORAD 58820 · 2024-016A

PAYLOAD ACTIVE UNKNOWN

§ Identity

Operator
Country
PRC
Launch date
2024-01-23
Launch site
JSC
Launch vehicle
Mass (kg)
RCS (m²)

External: N2YO · Heavens-Above · Gunter

§ Orbital elements

Epoch: 2026-05-25T05:01:54.153984Z

Period
92.70 min
Inclination
97.4475°
Eccentricity
0.0007878
Mean motion
15.53362231 rev/d
Perigee alt
401.6 km
Apogee alt
412.3 km
Semi-major
6,785.1 km
B*
5.2410e-4
RAAN
239.6042°
Arg perigee
134.0176°
Mean anomaly
226.1727°
Rev number
13,050

§ Raw data

2024-016A1 58820U 24016A   26145.20965456  .00033137  00000+0  52410-3 0  99922 58820  97.4475 239.6042 0007878 134.0176 226.1727 15.53362231130506

JSON: /api/v1/satellites/58820 · /tle

For live sub-satellite position, see the globe view (requires WebGL).

§ Visibility from observer

Set your observer location to see the next 7 days of passes ≥ 10°. The values pass through the URL so the page stays shareable.

No JS? Fill the form by hand. The geolocation button needs JavaScript.

§ Radio — SatNOGS DB

ModeDescriptionDownlinkUplink
FM UHF 401.950 MHz

1 transmitter · refreshed weekly from db.satnogs.org